When you browse on this site, cookies collect data to enhance your experience and personalize the content and advertising you see.
Visit our Privacy Policy to learn more. By continuing to use the site, you agree to this use of cookies and data.
  • In Sweden
  • List of Countries
  • For 7 days
  • Water Temperature
  • Satellite Maps
  • Weather Map
  • Weather Widgets
  • user-avatar
    Login

    Hourly Weather Lubango

    Today, 17 July, Wednesday

    Time Temperature Precipitation Wind Pressure Humidity
    00:00 +13°C° 0 mm 2 mps 609 mmHg 20%
    01:00 +12°C° 0 mm 2 mps 609 mmHg 21%
    02:00 +12°C° 0 mm 2 mps 609 mmHg 22%
    03:00 +12°C° 0 mm 2 mps 608 mmHg 24%
    04:00 +10°C° 0 mm 2 mps 608 mmHg 25%
    05:00 +10°C° 0 mm 2 mps 608 mmHg 27%
    06:00 +10°C° 0 mm 2 mps 609 mmHg 28%
    07:00 +12°C° 0 mm 2 mps 609 mmHg 29%
    08:00 +14°C° 0 mm 3 mps 611 mmHg 25%
    09:00 +19°C° 0 mm 3 mps 612 mmHg 21%
    10:00 +22°C° 0 mm 3 mps 613 mmHg 17%
    11:00 +25°C° 0 mm 3 mps 613 mmHg 15%
    12:00 +26°C° 0 mm 2 mps 613 mmHg 13%
    13:00 +28°C° 0 mm 1 mps 613 mmHg 11%
    14:00 +27°C° 0 mm 1 mps 613 mmHg 11%
    15:00 +27°C° 0 mm 1 mps 612 mmHg 11%
    16:00 +27°C° 0 mm 1 mps 612 mmHg 11%
    17:00 +23°C° 0 mm 1 mps 611 mmHg 14%
    18:00 +19°C° 0 mm 2 mps 610 mmHg 17%
    19:00 +16°C° 0 mm 2 mps 609 mmHg 20%
    20:00 +15°C° 0 mm 2 mps 609 mmHg 21%
    21:00 +15°C° 0 mm 2 mps 609 mmHg 22%
    22:00 +14°C° 0 mm 2 mps 609 mmHg 22%
    23:00 +14°C° 0 mm 2 mps 609 mmHg 22%

    Tomorrow, 18 July, Thursday

    Time Temperature Precipitation Wind Pressure Humidity
    00:00 +14°C° 0 mm 2 mps 609 mmHg 23%
    01:00 +13°C° 0 mm 2 mps 609 mmHg 23%
    02:00 +13°C° 0 mm 2 mps 609 mmHg 24%
    03:00 +13°C° 0 mm 2 mps 608 mmHg 25%
    04:00 +12°C° 0 mm 3 mps 608 mmHg 26%
    05:00 +12°C° 0 mm 3 mps 608 mmHg 27%
    06:00 +11°C° 0 mm 3 mps 609 mmHg 29%
    07:00 +11°C° 0 mm 3 mps 609 mmHg 30%
    08:00 +15°C° 0 mm 4 mps 610 mmHg 26%
    09:00 +19°C° 0 mm 4 mps 611 mmHg 22%
    10:00 +22°C° 0 mm 5 mps 612 mmHg 17%
    11:00 +25°C° 0 mm 4 mps 612 mmHg 16%
    12:00 +26°C° 0 mm 3 mps 612 mmHg 14%
    13:00 +27°C° 0 mm 3 mps 612 mmHg 13%
    14:00 +27°C° 0 mm 2 mps 612 mmHg 13%
    15:00 +27°C° 0 mm 2 mps 611 mmHg 12%
    16:00 +27°C° 0 mm 1 mps 611 mmHg 12%
    17:00 +24°C° 0 mm 1 mps 610 mmHg 15%
    18:00 +21°C° 0 mm 1 mps 609 mmHg 19%
    19:00 +16°C° 0 mm 2 mps 608 mmHg 22%
    20:00 +16°C° 0 mm 2 mps 608 mmHg 23%
    21:00 +15°C° 0 mm 2 mps 609 mmHg 23%
    22:00 +15°C° 0 mm 2 mps 609 mmHg 23%
    23:00 +15°C° 0 mm 2 mps 609 mmHg 23%

    Day after tomorrow, 19 July, Friday

    Time Temperature Precipitation Wind Pressure Humidity
    00:00 +14°C° 0 mm 2 mps 608 mmHg 24%
    01:00 +14°C° 0 mm 2 mps 608 mmHg 24%
    02:00 +14°C° 0 mm 2 mps 608 mmHg 25%
    03:00 +12°C° 0 mm 3 mps 608 mmHg 26%
    04:00 +12°C° 0 mm 3 mps 607 mmHg 27%
    05:00 +12°C° 0 mm 3 mps 608 mmHg 28%
    06:00 +12°C° 0 mm 3 mps 608 mmHg 30%
    07:00 +12°C° 0 mm 3 mps 608 mmHg 32%
    08:00 +16°C° 0 mm 3 mps 610 mmHg 28%
    09:00 +19°C° 0 mm 4 mps 611 mmHg 24%
    10:00 +23°C° 0 mm 4 mps 612 mmHg 20%
    11:00 +25°C° 0 mm 4 mps 612 mmHg 18%
    12:00 +26°C° 0 mm 3 mps 612 mmHg 16%
    13:00 +28°C° 0 mm 2 mps 612 mmHg 14%
    14:00 +28°C° 0 mm 2 mps 612 mmHg 14%
    15:00 +27°C° 0 mm 2 mps 611 mmHg 13%
    16:00 +27°C° 0 mm 2 mps 611 mmHg 13%
    17:00 +24°C° 0 mm 2 mps 610 mmHg 18%
    18:00 +19°C° 0 mm 2 mps 609 mmHg 23%
    19:00 +16°C° 0 mm 1 mps 608 mmHg 28%
    20:00 +15°C° 0 mm 1 mps 608 mmHg 29%
    21:00 +15°C° 0 mm 2 mps 608 mmHg 31%
    22:00 +14°C° 0 mm 2 mps 608 mmHg 32%
    23:00 +14°C° 0 mm 2 mps 608 mmHg 33%

    20 July, Saturday

    Time Temperature Precipitation Wind Pressure Humidity
    00:00 +14°C° 0 mm 2 mps 608 mmHg 33%
    01:00 +14°C° 0 mm 2 mps 608 mmHg 33%
    02:00 +12°C° 0 mm 3 mps 607 mmHg 31%
    03:00 +12°C° 0 mm 3 mps 607 mmHg 29%
    04:00 +12°C° 0 mm 3 mps 607 mmHg 27%
    05:00 +12°C° 0 mm 3 mps 607 mmHg 28%
    06:00 +12°C° 0 mm 3 mps 608 mmHg 29%
    07:00 +11°C° 0 mm 3 mps 608 mmHg 30%
    08:00 +16°C° 0 mm 3 mps 609 mmHg 25%
    09:00 +19°C° 0 mm 4 mps 611 mmHg 21%
    10:00 +23°C° 0 mm 4 mps 613 mmHg 16%
    11:00 +25°C° 0 mm 4 mps 612 mmHg 15%
    12:00 +26°C° 0 mm 3 mps 612 mmHg 13%
    13:00 +27°C° 0 mm 3 mps 612 mmHg 11%
    14:00 +27°C° 0 mm 3 mps 611 mmHg 11%
    15:00 +27°C° 0 mm 3 mps 611 mmHg 12%
    16:00 +27°C° 0 mm 3 mps 610 mmHg 12%
    17:00 +23°C° 0 mm 2 mps 609 mmHg 17%
    18:00 +19°C° 0 mm 2 mps 609 mmHg 23%
    19:00 +15°C° 0 mm 1 mps 608 mmHg 28%
    20:00 +14°C° 0 mm 1 mps 608 mmHg 31%
    21:00 +14°C° 0 mm 1 mps 608 mmHg 34%
    22:00 +13°C° 0 mm 1 mps 608 mmHg 37%
    23:00 +13°C° 0 mm 1 mps 608 mmHg 38%

    21 July, Sunday

    Time Temperature Precipitation Wind Pressure Humidity
    00:00 +13°C° 0 mm 1 mps 608 mmHg 39%
    01:00 +12°C° 0 mm 1 mps 608 mmHg 40%
    02:00 +12°C° 0 mm 1 mps 608 mmHg 38%
    03:00 +12°C° 0 mm 1 mps 608 mmHg 35%
    04:00 +12°C° 0 mm 1 mps 608 mmHg 33%
    05:00 +12°C° 0 mm 1 mps 608 mmHg 32%
    06:00 +12°C° 0 mm 1 mps 609 mmHg 31%
    07:00 +13°C° 0 mm 1 mps 609 mmHg 31%
    08:00 +16°C° 0 mm 2 mps 611 mmHg 26%
    09:00 +20°C° 0 mm 3 mps 612 mmHg 21%
    10:00 +23°C° 0 mm 4 mps 613 mmHg 17%
    11:00 +25°C° 0 mm 4 mps 613 mmHg 16%
    12:00 +26°C° 0 mm 3 mps 613 mmHg 15%
    13:00 +27°C° 0 mm 3 mps 613 mmHg 14%
    14:00 +27°C° 0 mm 3 mps 612 mmHg 15%
    15:00 +27°C° 0 mm 3 mps 612 mmHg 16%
    16:00 +26°C° 0 mm 2 mps 611 mmHg 17%
    17:00 +23°C° 0 mm 2 mps 610 mmHg 31%
    18:00 +18°C° 0 mm 2 mps 609 mmHg 45%
    19:00 +14°C° 0 mm 2 mps 608 mmHg 59%
    20:00 +14°C° 0 mm 1 mps 609 mmHg 58%
    21:00 +13°C° 0 mm 1 mps 609 mmHg 58%
    22:00 +13°C° 0 mm 1 mps 609 mmHg 57%
    23:00 +13°C° 0 mm 1 mps 609 mmHg 54%

    22 July, Monday

    Time Temperature Precipitation Wind Pressure Humidity
    00:00 +12°C° 0 mm 1 mps 609 mmHg 50%
    01:00 +12°C° 0 mm 1 mps 609 mmHg 47%
    02:00 +12°C° 0 mm 1 mps 609 mmHg 46%
    03:00 +12°C° 0 mm 1 mps 608 mmHg 44%
    04:00 +12°C° 0 mm 2 mps 608 mmHg 43%
    05:00 +12°C° 0 mm 1 mps 609 mmHg 43%
    06:00 +12°C° 0 mm 1 mps 609 mmHg 44%
    07:00 +12°C° 0 mm 1 mps 609 mmHg 45%
    08:00 +16°C° 0 mm 1 mps 610 mmHg 37%
    09:00 +19°C° 0 mm 2 mps 612 mmHg 29%
    10:00 +24°C° 0 mm 2 mps 613 mmHg 20%
    11:00 +25°C° 0 mm 2 mps 613 mmHg 19%
    12:00 +26°C° 0 mm 3 mps 613 mmHg 17%
    13:00 +27°C° 0 mm 3 mps 612 mmHg 16%
    14:00 +27°C° 0 mm 3 mps 612 mmHg 17%
    15:00 +26°C° 0 mm 3 mps 611 mmHg 19%
    16:00 +26°C° 0 mm 3 mps 611 mmHg 21%
    17:00 +21°C° 0 mm 3 mps 610 mmHg 33%
    18:00 +18°C° 0 mm 2 mps 609 mmHg 45%
    19:00 +14°C° 0 mm 2 mps 608 mmHg 57%
    20:00 +14°C° 0 mm 2 mps 608 mmHg 53%
    21:00 +14°C° 0 mm 1 mps 609 mmHg 49%
    22:00 +14°C° 0 mm 1 mps 609 mmHg 46%
    23:00 +14°C° 0 mm 1 mps 609 mmHg 43%
    Show more